[[{"header":{"parameterUnit":"m.s-1","parameterCategory":1,"la1":30.2992,"la2":30.254,"lo1":-89.0895,"lo2":-89.0443,"dy":0.0025,"dx":0.0025,"nx":19,"ny":19,"refTime":"2026-03-06T03:00:00:Z","depth":0,"parameterNumber":2,"parameterNumberName":"U-component_of_WINDS"},"data":[0,0,0,-3.4451,-3.4453,-3.4556,-3.4557,-3.4696,-3.4697,0,0,0,0,0,0,0,0,0,0,0,-3.4422,-3.4423,-3.4451,-3.4453,-3.4556,-3.4557,-3.4696,-3.4697,0,0,0,0,0,0,0,0,0,0,0,-3.4422,-3.4423,-3.4424,-3.4454,-3.4556,-3.4557,-3.4695,-3.4615,0,0,0,0,0,0,0,0,0,0,-3.4514,-3.449,-3.4423,-3.4424,-3.4454,-3.4556,-3.4557,-3.4611,-3.462,-3.4652,0,-3.4678,0,-3.469,-3.4707,-3.4707,0,0,0,-3.4452,-3.4482,-3.4508,-3.4425,-3.4455,-3.4556,-3.4509,-3.4616,-3.4626,-3.4664,-3.468,-3.4685,-3.4692,-3.4708,-3.4708,-3.4888,-3.4889,0,0,-3.4446,-3.4443,-3.4501,-3.4514,-3.4497,-3.4506,-3.4513,-3.4622,-3.4641,-3.468,-3.4688,-3.4694,-3.4709,-3.471,-3.4887,-3.4888,0,0,0,-3.4431,-3.4439,-3.4461,-3.4509,-3.4527,-3.4509,-3.4517,-3.4636,-3.4644,-3.469,-3.4696,-3.4709,-3.4711,-3.4886,-3.4887,-3.4926,0,0,0,-3.4427,-3.443,-3.4459,-3.4458,-3.4525,-3.4582,-3.4528,-3.4636,-3.4648,-3.4695,-3.4709,-3.4713,-3.4885,-3.4887,-3.4923,-3.4945,0,0,0,-3.4415,-3.4428,-3.4444,-3.4457,-3.4501,-3.458,-3.4594,-3.4639,-3.4653,-3.4707,-3.4713,-3.4884,-3.4886,-3.492,-3.494,-3.499,0,0,0,-3.4401,-3.4477,-3.4444,-3.4532,-3.45,-3.4604,-3.4594,-3.4671,-3.4723,-3.471,-3.4885,-3.4887,-3.4919,-3.4937,-3.4987,-3.5029,-3.5047,0,0,-3.4495,-3.4489,-3.4541,-3.4514,-3.4621,-3.4588,-3.4703,-3.4754,-3.4765,-3.4847,-3.4851,-3.4924,-3.494,-3.4989,-3.5152,-3.5166,0,0,0,-3.457,-3.4607,-3.4636,-3.4684,-3.4725,-3.4762,-3.4797,-3.4817,-3.4887,-3.4805,-3.4957,-3.4966,-3.4995,-3.5016,-3.5028,-3.5053,-3.4897,-3.4897,-3.4897,-3.4696,-3.4704,-3.4791,-3.4811,-3.4859,-3.4894,-3.4934,-3.4967,-3.4962,-3.4998,-3.5021,-3.5119,-3.5143,-3.5152,-3.5178,-3.5046,-3.5046,-3.5047,-3.5047,-3.4833,-3.4887,-3.4879,-3.4959,-3.4968,-3.5038,-3.5077,-3.5071,-3.5138,-3.5101,-3.5128,-3.5085,-3.5167,-3.519,-3.505,-3.5049,-3.5049,-3.5049,-3.5048,-3.4915,-3.4942,-3.4964,-3.5035,-3.509,-3.511,-3.5174,-3.5181,-3.5188,-3.5214,-3.524,-3.5239,-3.5238,-3.5227,-3.5227,-3.5227,-3.5228,-3.5228,-3.5228,-3.499,-3.5014,-3.5066,-3.5117,-3.5149,-3.5193,-3.5232,-3.5265,-3.5303,-3.5303,-3.5303,-3.5295,-3.5174,-3.5142,-3.5233,-3.5232,-3.5232,-3.5231,-3.5231,-3.5123,-3.5094,-3.5174,-3.5207,-3.5268,-3.5322,-3.5331,-3.5398,-3.5426,-3.5458,-3.5445,-3.5355,-3.5349,-3.534,-3.5313,-3.5443,-3.5443,-3.5443,-3.5443,-3.519,-3.5188,-3.5272,-3.5323,-3.5375,-3.5391,-3.5484,-3.5516,-3.5545,-3.5564,-3.5547,-3.5514,-3.5504,-3.5504,-3.5491,-3.5466,-3.5632,-3.5632,-3.5633,-3.5272,-3.5275,-3.5351,-3.5377,-3.5426,-3.5469,-3.5556,-3.5618,-3.5645,-3.564,-3.5579,-3.5571,-3.5517,-3.55,-3.549,-3.547,-3.5425,0,0]},{"header":{"parameterUnit":"m.s-1","parameterCategory":1,"la1":30.2992,"la2":30.254,"lo1":-89.0895,"lo2":-89.0443,"dy":0.0025,"dx":0.0025,"nx":19,"ny":19,"refTime":"2026-03-06T03:00:00:Z","depth":0,"parameterNumber":3,"parameterNumberName":"V-component_of_WINDS"},"data":[0,0,0,2.0799,2.0798,2.0758,2.0758,2.0712,2.0712,0,0,0,0,0,0,0,0,0,0,0,2.0814,2.0814,2.0799,2.0798,2.0758,2.0758,2.0712,2.0712,0,0,0,0,0,0,0,0,0,0,0,2.0814,2.0814,2.0814,2.0798,2.0758,2.0758,2.0712,2.074,0,0,0,0,0,0,0,0,0,0,2.0779,2.0796,2.0814,2.0814,2.0798,2.0758,2.0757,2.0742,2.0739,2.0733,0,2.0729,0,2.072,2.0709,2.0709,0,0,0,2.0795,2.0799,2.0785,2.0814,2.0797,2.0758,2.0775,2.074,2.0737,2.0729,2.0728,2.0726,2.0719,2.0709,2.0709,2.0686,2.0687,0,0,2.0797,2.0809,2.0787,2.0783,2.0789,2.0776,2.0774,2.0738,2.0737,2.0728,2.0725,2.0718,2.0708,2.0708,2.0686,2.0687,0,0,0,2.0806,2.081,2.0797,2.0785,2.0777,2.0775,2.0772,2.0739,2.0734,2.0724,2.0718,2.0708,2.0708,2.0686,2.0686,2.07,0,0,0,2.0807,2.0815,2.0798,2.0805,2.0778,2.0757,2.0774,2.0736,2.0732,2.0718,2.0708,2.0707,2.0686,2.0686,2.0699,2.0704,0,0,0,2.0816,2.0816,2.0812,2.0805,2.0789,2.0758,2.075,2.0735,2.0728,2.0709,2.0707,2.0686,2.0686,2.0699,2.0703,2.0703,0,0,0,2.0828,2.0822,2.0812,2.0803,2.0789,2.0766,2.075,2.0733,2.0718,2.0708,2.0686,2.0686,2.0699,2.0703,2.0702,2.0704,2.0706,0,0,2.0827,2.0823,2.0817,2.0806,2.0789,2.0772,2.0756,2.0731,2.0718,2.0698,2.0697,2.0699,2.0703,2.0702,2.0712,2.0714,0,0,0,2.082,2.0816,2.0809,2.0796,2.0778,2.0764,2.0741,2.0732,2.0715,2.071,2.0698,2.07,2.0699,2.07,2.0701,2.07,2.0687,2.0687,2.0687,2.0834,2.082,2.081,2.0792,2.078,2.0758,2.0747,2.0731,2.0719,2.0717,2.071,2.0718,2.0719,2.072,2.0719,2.071,2.071,2.071,2.071,2.0832,2.0825,2.0811,2.0797,2.0782,2.077,2.0749,2.0741,2.0728,2.0721,2.0719,2.0713,2.0722,2.0721,2.0711,2.0711,2.0711,2.0711,2.0711,2.084,2.0834,2.0825,2.0807,2.0795,2.0777,2.0766,2.0752,2.0739,2.0738,2.0731,2.0731,2.073,2.0736,2.0736,2.0736,2.0736,2.0736,2.0736,2.0851,2.0841,2.0833,2.0816,2.0808,2.0795,2.0774,2.0766,2.0753,2.0744,2.0744,2.0733,2.0726,2.0724,2.0736,2.0736,2.0736,2.0736,2.0736,2.0855,2.0853,2.0841,2.0833,2.0813,2.0803,2.0787,2.0771,2.0762,2.0758,2.0748,2.0744,2.0738,2.0737,2.0736,2.075,2.075,2.075,2.075,2.0861,2.0858,2.0844,2.0833,2.082,2.0805,2.0794,2.0779,2.0763,2.0757,2.0753,2.0751,2.075,2.0745,2.0743,2.0742,2.0758,2.0758,2.0758,2.0863,2.0858,2.0851,2.0836,2.0821,2.0808,2.0798,2.0785,2.0766,2.0758,2.0753,2.0752,2.0748,2.0747,2.0737,2.0735,2.0733,0,0]}]]